GW2240 Weather Reports


Display with metric or nautical units.
time (UTC)temp
F
wind
direction
speed
MPH
gust
MPH
rain 1hr
in
rain 24hr
in
rain mn
in
humidity
%
barometer
mb
20260502140105 55 15 0.0 5.0 0.00 1.57 0.00 96 1020.7
20260502123048 52 4 0.0 3.0 0.00 2.96 0.00 96 1019.3
20260502121548 52 30 0.0 1.0 0.00 2.96 0.00 96 1019.1
20260502114550 52 10 0.0 2.0 0.00 3.27 0.00 96 1018.8
20260502113043 52 8 0.0 2.0 0.00 3.27 0.00 96 1018.7
20260502111543 52 9 0.0 1.0 0.00 3.27 0.00 96 1018.6
20260502110043 52 21 0.0 2.0 0.00 3.27 0.00 96 1018.3
20260502104540 52 358 0.0 2.0 0.00 3.42 0.00 96 1018.3
20260502103038 52 5 0.0 2.0 0.00 3.42 0.00 96 1018.2
20260502101543 52 23 0.0 2.0 0.00 3.42 0.00 96 1018.0
20260502091527 53 2 0.0 2.0 0.00 3.67 0.00 96 1016.9
20260502071518 54 350 0.0 4.0 0.00 3.88 0.00 96 1016.4
20260502070017 54 352 0.0 3.0 0.00 3.88 0.00 96 1016.7
20260502064534 54 30 0.0 4.0 0.00 3.94 0.00 96 1016.3
20260502063017 54 360 1.0 6.0 0.00 3.94 0.00 96 1016.2
20260502061514 54 27 1.0 5.0 0.00 3.94 0.00 96 1016.1
20260502060014 54 349 2.0 5.0 0.00 3.94 0.00 96 1016.2
20260502054512 54 35 0.0 4.0 0.00 4.01 0.00 96 1016.1
20260502053010 55 38 2.0 6.0 0.00 4.01 0.00 96 1016.4
20260502051508 55 29 0.0 6.0 0.00 4.01 0.00 96 1016.2
20260502050014 55 346 0.0 8.0 0.00 4.01 0.00 96 1016.2
20260502044508 55 310 1.0 8.0 0.00 4.05 4.01 96 1016.2
20260502043004 55 6 1.0 7.0 0.00 4.05 4.01 96 1016.0
20260502041503 55 13 1.0 7.0 0.00 4.05 4.01 96 1016.1
20260502040001 56 336 2.0 7.0 0.00 4.05 4.01 96 1016.2
20260502034600 56 11 1.0 5.0 0.00 4.05 4.01 96 1016.2
20260502033100 56 352 1.0 5.0 0.00 4.05 4.01 96 1016.3
20260502031626 55 5 0.0 6.0 0.00 4.05 4.01 96 1015.9
20260502030055 56 348 0.0 8.0 0.00 4.05 4.01 96 1015.6
20260502024552 56 356 1.0 6.0 0.01 4.05 4.01 96 1014.8
20260502023054 56 26 1.0 5.0 0.02 4.05 4.01 96 1014.5
20260502021548 56 11 1.0 4.0 0.03 4.05 4.01 96 1014.7
20260502020105 56 14 1.0 7.0 0.03 4.04 4.01 96 1014.6
20260502014551 57 334 1.0 6.0 0.04 4.04 4.01 96 1014.4
20260502013042 57 42 3.0 8.0 0.05 4.03 4.00 96 1013.7
20260502011541 57 3 0.0 4.0 0.05 4.01 3.99 96 1014.5
20260502010038 58 332 1.0 10.0 0.07 4.01 3.98 96 1013.5
20260502004536 59 35 2.0 8.0 0.10 4.00 3.97 96 1012.7
20260502003034 59 6 2.0 7.0 0.10 3.98 3.95 96 1013.4
20260502001555 59 1 1.0 5.0 0.13 3.96 3.93 96 1013.2
20260502000035 59 19 0.0 3.0 0.15 3.94 3.91 96 1012.7
20260501234532 59 2 0.0 2.0 0.19 3.90 3.87 96 1013.1
20260501233032 59 23 0.0 2.0 0.17 3.88 3.85 96 1012.7
20260501231534 59 296 0.0 0.0 0.12 3.83 3.80 96 1012.0
20260501230034 60 5 0.0 3.0 0.09 3.79 3.76 96 1012.1
20260501224530 60 119 0.0 8.0 0.04 3.71 3.68 96 1010.5
20260501223028 60 290 0.0 7.0 0.09 3.71 3.68 96 1010.0
20260501221527 60 297 0.0 8.0 0.13 3.71 3.68 96 1010.7
20260501220026 60 9 2.0 7.0 0.14 3.70 3.67 96 1011.9
20260501214526 60 24 0.0 4.0 0.13 3.67 3.64 96 1012.2
20260501213024 61 18 1.0 6.0 0.12 3.62 3.59 96 1011.9
20260501211525 61 15 0.0 5.0 0.13 3.58 3.55 96 1011.7
20260501210031 61 39 0.0 4.0 0.14 3.56 3.53 96 1010.0
20260501204523 61 358 1.0 6.0 0.13 3.54 3.51 96 1010.9
20260501203024 61 9 0.0 4.0 0.11 3.50 3.47 96 1010.5
20260501201522 61 33 0.0 5.0 0.08 3.45 3.42 96 1010.4
20260501200021 62 164 0.0 4.0 0.06 3.42 3.39 96 1010.9
20260501194523 62 8 1.0 5.0 0.06 3.41 3.38 96 1010.7
20260501193020 62 306 0.0 5.0 0.03 3.38 3.35 96 1010.4
20260501191520 62 339 0.0 3.0 0.03 3.37 3.34 96 1010.6
20260501190019 62 263 0.0 4.0 0.03 3.36 3.33 96 1009.5
20260501184518 62 52 0.0 2.0 0.03 3.35 3.32 96 1010.3
20260501183018 62 360 0.0 4.0 0.04 3.35 3.32 96 1009.4
20260501181522 62 359 2.0 9.0 0.04 3.34 3.31 96 1008.2
20260501180022 62 6 0.0 5.0 0.03 3.33 3.30 96 1008.8
20260501174512 63 30 0.0 7.0 0.03 3.32 3.29 96 1010.2
20260501173017 62 9 1.0 5.0 0.02 3.31 3.28 96 1011.5
20260501171514 62 354 0.0 2.0 0.07 3.30 3.27 96 1011.4
20260501170011 62 344 0.0 6.0 0.12 3.30 3.27 96 1011.3
20260501164510 62 14 0.0 6.0 0.20 3.29 3.26 96 1012.0
20260501163013 62 351 2.0 7.0 0.44 3.29 3.26 96 1012.5
20260501161511 62 294 3.0 9.0 0.40 3.23 3.20 96 1013.2
20260501160008 62 31 1.0 4.0 0.35 3.18 3.15 96 1013.3
20260501154506 62 21 1.0 7.0 0.27 3.08 3.05 96 1013.3
20260501153006 62 344 0.0 3.0 0.07 2.85 2.82 96 1013.2
20260501151506 62 195 0.0 4.0 0.17 2.83 2.80 96 1012.4
20260501150012 62 27 0.0 7.0 0.34 2.83 2.80 96 1011.9